Terug naar catalogus

STARLINK-36799

ActiefCommunicatieVLEO
NORAD 67958·PAYLOAD·🇺🇸 United States

Gelanceerd Feb 24, 2026 vanaf Vandenberg Space Force Base

Loading…

Volgende Passages (komende 24 uur)

TLE

VersSource: CelesTrak SupGP

Epoch: Sep 14, 2026, 15:40 UTC

1 67958C 26037AC  26257.65326389  .00004565  00000+0  16537-3 0  2578
2 67958  43.0003 203.4386 0001384 266.0938  12.8131 15.27569192    17

Volg STARLINK-36799 in realtime met AllMySat

Download on the App Store